GW4086 Weather Reports


time (UTC)temp
F
wind
direction
speed
knots
gust
knots
rain 1hr
in
rain 24hr
in
rain mn
in
humidity
%
barometer
mb
20260906231606 65 313 4.3 8.7 0.00 0.03 0.00 72 1015.0
20260906230111 65 300 6.1 9.6 0.00 0.03 0.00 71 1015.3
20260906224600 66 313 5.2 7.8 0.00 0.03 0.00 71 1015.2
20260906223105 65 292 3.5 7.8 0.00 0.03 0.00 71 1015.5
20260906221608 65 283 6.1 8.7 0.00 0.03 0.00 72 1015.5
20260906220109 66 295 4.3 7.0 0.00 0.03 0.00 68 1015.5
20260906214605 66 304 1.7 4.3 0.00 0.03 0.00 67 1015.5
20260906213108 66 22 1.7 3.5 0.00 0.03 0.00 67 1015.4
20260906211607 65 345 1.7 5.2 0.00 0.03 0.00 67 1015.5
20260906210114 65 47 2.6 4.3 0.00 0.03 0.00 67 1015.6
20260906204608 65 348 1.7 4.3 0.00 0.03 0.00 68 1015.4
20260906203105 65 0 0.9 3.5 0.00 0.03 0.00 69 1015.7
20260906201606 64 49 1.7 5.2 0.00 0.03 0.00 70 1015.6
20260906200120 64 113 1.7 5.2 0.00 0.03 0.00 71 1015.8
20260906194618 64 39 0.9 4.3 0.00 0.03 0.00 71 1015.9
20260906193109 63 75 0.9 4.3 0.00 0.03 0.00 72 1016.2
20260906191608 63 66 2.6 8.7 0.00 0.03 0.00 72 1016.2
20260906190145 63 75 4.3 7.8 0.00 0.03 0.00 73 1016.3
20260906184605 62 61 5.2 9.6 0.00 0.03 0.00 73 1016.3
20260906183110 62 30 5.2 11.3 0.00 0.03 0.00 76 1016.3
20260906181613 61 52 7.0 11.3 0.00 0.03 0.00 79 1016.7
20260906180108 60 25 5.2 11.3 0.00 0.03 0.00 81 1017.0
20260906174605 60 75 3.5 7.8 0.00 0.03 0.00 82 1017.1
20260906173113 59 22 7.0 12.2 0.00 0.03 0.00 83 1016.5
20260906171606 58 68 3.5 7.0 0.00 0.03 0.00 83 1017.3
20260906170109 57 319 3.5 8.7 0.00 0.03 0.00 83 1018.1
20260906164605 57 295 3.5 7.0 0.00 0.03 0.00 82 1018.2
20260906163107 57 300 3.5 7.0 0.00 0.03 0.00 80 1018.3
20260906161605 57 307 3.5 7.8 0.00 0.03 0.00 80 1018.3
20260906160104 56 302 3.5 7.0 0.00 0.03 0.00 80 1018.2
20260906154615 56 290 3.5 6.1 0.00 0.03 0.00 79 1018.4
20260906153104 56 298 3.5 6.1 0.00 0.03 0.00 79 1018.6
20260906151610 56 323 5.2 13.0 0.00 0.03 0.00 80 1018.8
20260906150106 56 300 4.3 10.4 0.00 0.03 0.00 82 1018.7
20260906144604 56 296 7.0 13.0 0.00 0.03 0.00 82 1019.2
20260906143113 58 303 6.1 12.2 0.00 0.03 0.00 82 1019.1
20260906141604 59 298 4.3 6.1 0.00 0.03 0.00 83 1018.9
20260906134609 59 322 0.0 0.9 0.00 0.08 0.00 81 1018.5
20260906133118 59 0 0.0 2.6 0.00 0.08 0.00 81 1018.6
20260906131604 59 0 0.0 6.1 0.00 0.08 0.00 81 1018.5
20260906130119 59 0 1.7 6.1 0.00 0.08 0.00 83 1018.7
20260906124604 59 323 3.5 10.4 0.00 0.08 0.00 82 1018.4
20260906123100 59 20 5.2 10.4 0.00 0.08 0.00 82 1018.3
20260906121559 59 40 6.1 13.0 0.00 0.08 0.00 82 1018.1
20260906120107 59 360 6.1 11.3 0.00 0.08 0.00 82 1017.8
20260906114601 59 329 5.2 13.0 0.00 0.08 0.00 81 1018.0
20260906113104 59 37 3.5 10.4 0.00 0.08 0.00 81 1018.2
20260906111559 59 332 4.3 12.2 0.00 0.08 0.00 81 1018.2
20260906110107 59 18 6.1 13.9 0.00 0.08 0.00 81 1018.2
20260906104605 59 341 4.3 10.4 0.00 0.08 0.00 80 1018.3
20260906103106 59 345 4.3 13.0 0.00 0.08 0.00 80 1018.4
20260906101610 59 1 6.1 12.2 0.00 0.08 0.00 80 1018.2
20260906100109 58 338 3.5 8.7 0.00 0.08 0.00 81 1018.4
20260906094611 59 328 3.5 10.4 0.00 0.08 0.00 80 1018.6
20260906093118 59 25 3.5 10.4 0.00 0.08 0.00 81 1018.4
20260906091606 58 29 4.3 10.4 0.00 0.08 0.00 82 1018.4
20260906090139 58 338 4.3 7.0 0.00 0.08 0.00 82 1018.7
20260906084627 58 321 1.7 7.0 0.00 0.08 0.00 83 1019.0
20260906083105 58 295 4.3 8.7 0.00 0.08 0.00 83 1019.2
20260906081604 58 300 2.6 7.0 0.00 0.08 0.00 83 1019.5
20260906080110 58 290 5.2 8.7 0.00 0.08 0.00 82 1019.6
20260906074603 58 257 3.5 6.1 0.00 0.08 0.00 81 1019.7
20260906073105 58 286 0.0 4.3 0.00 0.08 0.00 80 1019.7
20260906071604 58 0 0.9 3.5 0.00 0.08 0.00 80 1019.6
20260906070107 58 300 0.9 3.5 0.00 0.08 0.00 80 1019.9
20260906064601 58 274 1.7 6.1 0.00 0.08 0.00 80 1019.9
20260906063106 58 281 0.9 4.3 0.00 0.08 0.00 81 1020.0
20260906061608 58 304 1.7 3.5 0.00 0.08 0.00 82 1020.4
20260906060108 58 293 2.6 5.2 0.00 0.08 0.00 82 1020.4
20260906054608 58 277 2.6 3.5 0.00 0.08 0.08 80 1020.3
20260906053119 58 304 2.6 4.3 0.00 0.08 0.08 81 1020.4
20260906051608 58 278 1.7 3.5 0.01 0.08 0.08 83 1019.9
20260906050107 58 295 5.2 7.8 0.01 0.08 0.08 80 1019.6
20260906044620 58 309 4.3 9.6 0.01 0.08 0.08 80 1019.3
20260906043104 59 338 6.1 10.4 0.01 0.08 0.08 77 1019.3
20260906041609 59 307 2.6 13.0 0.00 0.07 0.07 76 1019.5
20260906040105 59 335 5.2 12.2 0.00 0.07 0.07 74 1018.6
20260906034602 59 342 7.8 14.8 0.02 0.07 0.07 73 1018.3
20260906033105 60 345 7.8 13.0 0.02 0.07 0.07 73 1018.7
20260906031604 60 334 3.5 8.7 0.02 0.07 0.07 72 1019.0
20260906024624 63 120 6.1 14.8 0.00 0.05 0.05 61 1018.6
20260906023107 63 72 7.0 14.8 0.00 0.05 0.05 61 1016.9
20260906021608 64 65 6.1 13.0 0.00 0.05 0.05 58 1017.1
20260906020109 65 44 5.2 11.3 0.00 0.05 0.05 57 1017.0
20260906014608 66 33 4.3 8.7 0.00 0.05 0.05 55 1017.0
20260906013111 67 330 4.3 11.3 0.00 0.05 0.05 53 1017.0
20260906011605 68 93 4.3 8.7 0.00 0.05 0.05 51 1017.0
20260906010130 69 356 2.6 7.8 0.00 0.05 0.05 50 1017.1
20260906004603 70 257 3.5 8.7 0.00 0.05 0.05 49 1017.2
20260906003110 71 306 5.2 9.6 0.00 0.05 0.05 47 1017.1
20260906001615 72 315 6.1 11.3 0.00 0.05 0.05 44 1017.2
20260906000112 72 315 7.0 12.2 0.00 0.05 0.05 44 1017.3
20260905234610 73 310 3.5 8.7 0.00 0.05 0.05 44 1017.2
20260905233103 73 292 4.3 9.6 0.00 0.05 0.05 42 1017.4